Weather History for NW Arkansas Airport, AR

Change the Weather History Date:

Monday, September 10, 2012

  Actual Average Record
Temperature  
Mean Temperature 66 °F -  
Max Temperature 81 °F - - ()
Min Temperature 52 °F - - ()
Cooling Degree Days 2    
Growing Degree Days 16 (Base 50)    
Moisture  
Dew Point 54 °F    
Average Humidity 67    
Maximum Humidity 97    
Minimum Humidity 36    
Precipitation  
Precipitation 0.00 in - - ()
Sea Level Pressure  
Sea Level Pressure 30.10 in    
Wind  
Wind Speed 3 mph (ESE)    
Max Wind Speed 8 mph    
Max Gust Speed -    
Visibility 10 miles    
Events      
T = Trace of Precipitation, MM = Missing Value Source: NWS Daily Summary

Daily Weather History Graph

Daily Weather History Graph

Search for Another Location

Airport:

Trip Planner

Search our weather history database for the weather conditions in past years. The results will help you decide how hot, cold, wet, or windy it might be!

Date:

Astronomy

Sep. 10, 2012 Rise Set
Actual Time 6:56 AM CDT 7:31 PM CDT
Civil Twilight 6:30 AM CDT 7:57 PM CDT
Nautical Twilight 5:59 AM CDT 8:27 PM CDT
Astronomical Twilight 5:28 AM CDT 8:58 PM CDT
Moon 1:25 AM CDT (9/10) 3:54 PM CDT (9/10)
Length of Visible Light 13h 26m
Length of Day
12h 35m
Waning Crescent, 30% of the Moon is Illuminated
Sep 10
Waning Crescent
Sep 15
New
Sep 22
First Quarter
Sep 29
Full
Oct 8
Last Quarter

Hourly Weather History & Observations

Time (CDT) Temp. Heat Index Dew Point Humidity Pressure Visibility Wind Dir Wind Speed Gust Speed Precip Events Conditions
12:53 AM 57.0 °F - 52.0 °F 83% 30.11 in 10.0 mi North 3.5 mph - N/A   Clear
1:53 AM 57.0 °F - 52.0 °F 83% 30.10 in 10.0 mi North 3.5 mph - N/A   Clear
2:53 AM 55.0 °F - 51.1 °F 86% 30.10 in 10.0 mi Calm Calm - N/A   Clear
3:53 AM 55.0 °F - 52.0 °F 89% 30.10 in 10.0 mi Calm Calm - N/A   Clear
4:53 AM 55.0 °F - 52.0 °F 89% 30.11 in 10.0 mi Calm Calm - N/A   Clear
5:53 AM 53.1 °F - 52.0 °F 96% 30.13 in 10.0 mi Calm Calm - N/A   Clear
6:53 AM 52.0 °F - 51.1 °F 97% 30.14 in 10.0 mi Calm Calm - N/A   Clear
7:53 AM 57.0 °F - 54.0 °F 89% 30.16 in 10.0 mi Calm Calm - N/A   Clear
8:53 AM 62.1 °F - 55.0 °F 78% 30.16 in 10.0 mi East 4.6 mph - N/A   Clear
9:53 AM 66.9 °F - 55.9 °F 68% 30.17 in 10.0 mi SE 8.1 mph - N/A   Clear
10:53 AM 70.0 °F - 55.9 °F 61% 30.17 in 10.0 mi SSE 8.1 mph - N/A   Clear
11:53 AM 73.9 °F - 57.0 °F 55% 30.15 in 10.0 mi SSE 6.9 mph - N/A   Clear
1:53 PM 78.1 °F - 52.0 °F 40% 30.11 in 10.0 mi Calm Calm - N/A   Clear
2:53 PM 79.0 °F - 53.1 °F 40% 30.09 in 10.0 mi South 6.9 mph - N/A   Clear
3:53 PM 80.1 °F 80.0 °F 54.0 °F 40% 30.07 in 10.0 mi Calm Calm - N/A   Clear
4:53 PM 81.0 °F - 52.0 °F 36% 30.06 in 10.0 mi South 4.6 mph - N/A   Clear
5:53 PM 81.0 °F - 52.0 °F 36% 30.05 in 10.0 mi SE 5.8 mph - N/A   Clear
6:53 PM 79.0 °F - 52.0 °F 39% 30.05 in 10.0 mi East 3.5 mph - N/A   Clear
7:53 PM 73.9 °F - 55.9 °F 53% 30.04 in 10.0 mi East 3.5 mph - N/A   Clear
8:53 PM 69.1 °F - 55.9 °F 63% 30.05 in 10.0 mi Calm Calm - N/A   Clear
9:53 PM 66.9 °F - 57.0 °F 70% 30.07 in 10.0 mi Calm Calm - N/A   Clear
10:53 PM 66.0 °F - 55.9 °F 70% 30.06 in 10.0 mi Calm Calm - N/A   Clear
11:53 PM 63.0 °F - 55.9 °F 78% 30.07 in 10.0 mi ESE 3.5 mph - N/A   Clear